DW5868 Weather Reports


time (UTC)temp
C
wind
direction
speed
KPH
gust
KPH
rain 1hr
cm
rain 24hr
cm
rain mn
cm
humidity
%
barometer
mb
20260831131519 -17 0.0 0.0 0.00 0.00 0.00 1004.1
20260831130017 -17 0.0 0.0 0.00 0.00 0.00 1004.2
20260831124533 -17 0.0 0.0 0.00 0.00 0.00 1004.3
20260831123007 -17 0.0 0.0 0.00 0.00 0.00 1004.4
20260831121503 -17 0.0 0.0 0.00 0.00 0.00 1004.7
20260831120100 -17 0.0 0.0 0.00 0.00 0.00 1005.0
20260831114558 12 183 1.6 19.3 0.00 0.00 0.00 41 1005.2
20260831113059 12 280 6.4 22.5 0.00 0.00 0.00 40 1005.2
20260831111612 12 272 6.4 17.7 0.00 0.00 0.00 40 1005.3
20260831110056 12 261 3.2 16.1 0.00 0.00 0.00 40 1005.4
20260831104605 12 268 3.2 16.1 0.00 0.00 0.00 40 1005.5
20260831103059 11 246 1.6 14.5 0.00 0.00 0.00 42 1005.5
20260831101555 8 271 0.0 4.8 0.00 0.00 0.00 56 1005.4
20260831100048 8 51 0.0 0.0 0.00 0.00 0.00 54 1005.5
20260831094603 8 277 0.0 4.8 0.00 0.00 0.00 59 1005.5
20260831093051 8 280 0.0 1.6 0.00 0.00 0.00 58 1005.6
20260831091549 8 275 0.0 3.2 0.00 0.00 0.00 56 1005.5
20260831090044 8 280 0.0 1.6 0.00 0.00 0.00 56 1005.6
20260831084541 9 279 0.0 1.6 0.00 0.00 0.00 53 1005.7
20260831083045 10 284 0.0 0.0 0.00 0.00 0.00 52 1005.7
20260831081537 10 282 0.0 1.6 0.00 0.00 0.00 51 1005.8
20260831080034 10 280 0.0 3.2 0.00 0.00 0.00 51 1005.9
20260831074537 11 280 0.0 1.6 0.00 0.00 0.00 46 1006.1
20260831073032 11 280 0.0 3.2 0.00 0.00 0.00 43 1006.1
20260831071530 12 275 0.0 1.6 0.00 0.00 0.00 41 1006.3
20260831070031 13 34 0.0 8.0 0.00 0.00 0.00 38 1006.2
20260831064530 13 226 1.6 14.5 0.00 0.00 0.00 38 1006.1
20260831063027 13 284 1.6 12.9 0.00 0.00 0.00 38 1006.1
20260831061527 14 298 3.2 27.4 0.00 0.00 0.00 37 1006.0
20260831060027 14 248 3.2 14.5 0.00 0.00 0.00 36 1006.2
20260831054529 14 267 1.6 11.3 0.00 0.00 0.00 36 1006.3
20260831053029 14 264 1.6 12.9 0.00 0.00 0.00 35 1006.5
20260831051533 14 230 4.8 24.1 0.00 0.00 0.00 34 1006.5
20260831050042 14 261 8.0 24.1 0.00 0.00 0.00 32 1006.4
20260831044525 14 218 11.3 25.7 0.00 0.00 0.00 32 1006.3
20260831043025 14 232 9.7 24.1 0.00 0.00 0.00 28 1006.2
20260831041525 13 39 11.3 24.1 0.00 0.00 0.00 27 1006.2
20260831040026 13 246 3.2 14.5 0.00 0.00 0.00 27 1006.0
20260831034524 14 263 11.3 30.6 0.00 0.00 0.00 26 1005.9
20260831033024 14 307 8.0 29.0 0.00 0.00 0.00 28 1005.8
20260831031527 14 268 9.7 27.4 0.00 0.00 0.00 30 1005.7
20260831030023 14 282 4.8 17.7 0.00 0.00 0.00 32 1005.6
20260831024524 14 296 4.8 20.9 0.00 0.00 0.00 31 1005.6
20260831023022 15 223 6.4 20.9 0.00 0.00 0.00 29 1005.4
20260831021522 15 199 6.4 32.2 0.00 0.00 0.00 32 1005.4
20260831020024 15 92 4.8 32.2 0.00 0.00 0.00 34 1005.5
20260831014521 16 273 4.8 22.5 0.00 0.00 0.00 34 1005.4
20260831013021 17 214 4.8 24.1 0.00 0.00 0.00 31 1005.5
20260831011521 18 265 6.4 16.1 0.00 0.00 0.00 29 1005.6
20260831010030 18 185 4.8 22.5 0.00 0.00 0.00 29 1005.6
20260831004520 19 241 6.4 27.4 0.00 0.00 0.00 30 1005.6
20260831003020 19 220 3.2 19.3 0.00 0.00 0.00 30 1005.6
20260831001532 20 192 4.8 16.1 0.00 0.00 0.00 29 1005.5
20260831000019 20 206 4.8 22.5 0.00 0.00 0.00 29 1005.7
20260830234535 20 258 8.0 22.5 0.00 0.00 0.00 28 1005.7
20260830233021 20 296 9.7 22.5 0.00 0.00 0.00 27 1005.7
20260830231517 20 209 6.4 20.9 0.00 0.00 0.00 27 1005.9
20260830230029 20 246 4.8 19.3 0.00 0.00 0.00 27 1006.0
20260830224523 20 287 6.4 25.7 0.00 0.00 0.00 27 1006.2
20260830223018 20 298 11.3 25.7 0.00 0.00 0.00 24 1006.4
20260830221509 21 243 4.8 25.7 0.00 0.00 0.00 24 1006.8
20260830220023 21 294 8.0 22.5 0.00 0.00 0.00 21 1007.0
20260830214508 21 277 3.2 30.6 0.00 0.00 0.00 22 1007.2
20260830213008 20 280 6.4 30.6 0.00 0.00 0.00 20 1007.2
20260830211507 21 265 4.8 29.0 0.00 0.00 0.00 19 1007.4
20260830210006 21 199 4.8 22.5 0.00 0.00 0.00 17 1007.5
20260830204510 21 275 6.4 20.9 0.00 0.00 0.00 16 1007.6
20260830203007 21 199 6.4 16.1 0.00 0.00 0.00 16 1007.8
20260830201519 21 276 6.4 22.5 0.00 0.00 0.00 15 1007.7
20260830200006 21 271 6.4 17.7 0.00 0.00 0.00 16 1007.7
20260830194505 22 303 3.2 11.3 0.00 0.00 0.00 15 1007.8
20260830193005 21 252 4.8 17.7 0.00 0.00 0.00 17 1007.9
20260830191504 21 195 3.2 14.5 0.00 0.00 0.00 19 1008.1
20260830190101 21 129 3.2 12.9 0.00 0.00 0.00 16 1008.3
20260830184559 20 114 8.0 16.1 0.00 0.00 0.00 15 1008.5
20260830183101 20 69 3.2 9.7 0.00 0.00 0.00 15 1008.6
20260830181609 19 35 4.8 12.9 0.00 0.00 0.00 16 1008.6
20260830180108 19 163 3.2 12.9 0.00 0.00 0.00 16 1008.7
20260830174606 18 137 1.6 14.5 0.00 0.00 0.00 18 1008.8
20260830173109 18 74 3.2 11.3 0.00 0.00 0.00 18 1008.7
20260830171553 18 80 4.8 12.9 0.00 0.00 0.00 18 1008.7
20260830170051 18 126 3.2 6.4 0.00 0.00 0.00 19 1008.6
20260830164550 17 132 1.6 6.4 0.00 0.00 0.00 19 1008.7
20260830163056 17 140 3.2 11.3 0.00 0.00 0.00 20 1008.8
20260830161550 17 149 3.2 6.4 0.00 0.00 0.00 21 1008.8
20260830160048 17 206 3.2 6.4 0.00 0.00 0.00 21 1008.7
20260830154546 17 165 0.0 4.8 0.00 0.00 0.00 22 1008.6
20260830153047 16 142 1.6 6.4 0.00 0.00 0.00 26 1008.5
20260830151541 16 80 3.2 12.9 0.00 0.00 0.00 24 1008.4
20260830150038 15 56 3.2 11.3 0.00 0.00 0.00 32 1008.3
20260830144540 13 315 4.8 16.1 0.00 0.00 0.00 33 1008.3
20260830143031 13 275 6.4 19.3 0.00 0.00 0.00 34 1008.2
20260830141528 12 292 3.2 14.5 0.00 0.00 0.00 35 1007.6
20260830140027 12 256 8.0 9.7 0.00 0.00 0.00 35 1007.2
20260830134522 -17 0.0 0.0 0.00 0.00 0.00 1007.1
20260830133035 -17 0.0 0.0 0.00 0.00 0.00 1007.0